Location: Azul
(36.7830°S, 59.8500°W)
Time: 01:28:17
(UTC-03:00)

NOAA 15 - Visible Passes

Search period start: 23 October 2021 00:00
Search period end: 02 November 2021 00:00
Orbit: 798 x 811 km, 98.7° (Epoch: 22 October)

Date Brightness Start Highest point End Pass type
(mag) Time Alt. Az. Time Alt. Az. Time Alt. Az.
23 Oct 5.0 20:10:29 10° SSE 20:15:28 40° E 20:20:24 10° NNE visible
23 Oct 6.8 21:50:49 10° SSW 21:54:56 24° WSW 21:59:03 10° WNW visible
24 Oct 5.7 19:45:58 10° SE 19:50:07 23° E 19:54:13 10° NE visible
24 Oct 5.9 21:25:03 10° S 21:29:58 39° WSW 21:34:51 10° NW visible
25 Oct 4.9 20:59:35 10° S 21:04:53 69° WSW 21:10:08 10° NNW visible
26 Oct 4.5 20:34:23 10° SSE 20:39:42 69° ENE 20:44:58 10° N visible
26 Oct 7.5 22:16:06 10° SSW 22:18:50 14° WSW 22:21:33 10° W visible
27 Oct 5.1 20:09:28 10° SSE 20:14:27 39° E 20:19:21 10° NNE visible
27 Oct 6.8 21:49:45 10° SSW 21:53:56 24° WSW 21:58:06 10° WNW visible
28 Oct 5.9 21:24:00 10° S 21:28:56 40° WSW 21:33:52 10° NW visible
29 Oct 4.9 20:58:33 10° S 21:03:51 71° WSW 21:09:07 10° NNW visible
30 Oct 4.6 20:33:22 10° SSE 20:38:41 67° ENE 20:43:56 10° N visible
30 Oct 7.4 22:15:00 10° SSW 22:17:49 15° WSW 22:20:38 10° W visible
31 Oct 5.1 20:08:28 10° SSE 20:13:24 38° E 20:18:18 10° NNE visible
31 Oct 6.8 21:48:41 10° SSW 21:52:55 25° WSW 21:57:08 10° WNW visible
01 Nov 5.9 21:22:56 10° S 21:27:56 41° WSW 21:32:52 10° NW visible
